Regional Weather Roundup
Issued by NWS Sioux Falls, SD

Home | Current Version | Previous Version | Graphics & Text | Print | Product List | Glossary On
Versions: 1 2 3 4 5 6 7 8 9 10 11 12 13 14 15 16 17 18 19 20 21 22 23 24 25 26 27 28 29 30 31 32 33 34 35 36 37 38 39 40 41 42 43 44 45 46 47 48 49 50
000
ASUS43 KFSD 250702
RWRFSD

WEATHER ROUNDUP FOR SE SOUTH DAKOTA/SW MINNESOTA/NW IOWA
NATIONAL WEATHER SERVICE SIOUX FALLS SD
200 AM CDT SAT APR 25 2015

NOTE: "FAIR" INDICATES FEW OR NO CLOUDS BELOW 12,000 FEET WITH NO
SIGNIFICANT WEATHER AND OR OBSTRUCTIONS TO VISIBILITY.


SDZ038>040-050-052>070-250800-
SOUTHEAST SOUTH DAKOTA

CITY           SKY/WX    TMP DP  RH WIND       PRES   REMARKS
BROOKINGS      CLOUDY    46  46 100 SE18      29.64F
CHAMBERLAIN    NOT AVBL
HURON          CLOUDY    51  47  86 SE23G31   29.59R
MADISON        LGT RAIN  46  46 100 E24       29.64F
MITCHELL       LGT RAIN  52  50  93 E24G31    29.57R
SIOUX FALLS    RAIN      48  46  93 E14       29.64F FOG
WINNER         FAIR      57  46  66 NW3       29.55R
YANKTON        CLOUDY    54  46  76 E9        29.58R
$$

MNZ071-072-080-081-089-090-097-098-250800-
SOUTHWEST MINNESOTA

CITY           SKY/WX    TMP DP  RH WIND       PRES   REMARKS
FAIRMONT       CLOUDY    45  19  36 E14       29.70S
JACKSON        CLOUDY    45  41  87 E14       29.69S
LUVERNE        CLOUDY    48  45  87 NE10      29.67S
MARSHALL       CLOUDY    45  39  81 SE14      29.70S
MONTEVIDEO     LGT RAIN  43  43 100 SE12      29.74F
PIPESTONE      CLOUDY    45  43  93 E14       29.66F
REDWOOD FALLS  CLOUDY    45  40  82 E13       29.73S
TRACY          CLOUDY    46  42  89 SE7       29.72S
WORTHINGTON    CLOUDY    45  39  81 E9        29.69R
$$

IAZ001>003-012>014-020>022-031-032-NEZ013-014-SDZ071-250800-
NORTHWEST IOWA

CITY           SKY/WX    TMP DP  RH WIND       PRES   REMARKS
DENISON        CLOUDY    48  48 100 E13G20    29.55F FOG
ESTHERVILLE    CLOUDY    44  41  89 E17       29.67F
SIOUX CITY     CLOUDY    54  47  77 E14       29.57S
SPENCER        CLOUDY    47  42  83 E17       29.64F
$$

ABBREVIATIONS USED IN REMARKS
   TC - TEMPERATURE IN CELSIUS
  WCI - WIND CHILL INDEX
   HX - HEAT INDEX
  VSB - VISIBILITY




USA.gov is the U.S. government's official web portal to all federal, state and local government web resources and services.